Current Version              Previous Version:    01  02  03  04  05  06  07  08  09  10  11  12  13  14  15  16  17  18  19  20  21  22  23  24  25  26  27  28  29  30  
   31  32  33  34  35  36  37  38  39  40  41  42  43  44  45  46  47  48  49  50  51  52  53  54  55  56  57  58  59  60  

[Printable]
766
ASUS44 KLUB 310710
RWRTX
WEST TEXAS WEATHER ROUNDUP
NATIONAL WEATHER SERVICE LUBBOCK TX
200 AM CDT FRI OCT 31 2014

NOTE: "FAIR" INDICATES FEW OR NO CLOUDS BELOW 12,000 FEET WITH NO
SIGNIFICANT WEATHER AND/OR OBSTRUCTIONS TO VISIBILITY.

TXZ004-006>008-010-012-014-016-OKZ002-310800-
TEXAS PANHANDLE/OKLAHOMA PANHANDLE

CITY           SKY/WX    TMP DP  RH WIND       PRES   REMARKS
AMARILLO       CLEAR     47  30  51 NE6       30.39R
BORGER         CLEAR     51  27  39 W3        30.38R
CANADIAN       CLEAR     39  34  83 CALM      30.36R
DALHART        CLEAR     41  29  62 N6        30.42R
DUMAS            N/A     37  27  68 W5        30.40R WCI  33
GUYMON         CLEAR     45  30  55 NE9       30.39R
HEREFORD       CLEAR     40  33  78 MISG      30.40R
PAMPA          CLEAR     45  30  55 NE8       30.38R
PERRYTON       CLEAR     42  29  61 N7        30.38R
$$

TXZ026-029-035-045-048-310800-
SOUTHERN PANHANDLE/SOUTH PLAINS/ROLLING PLAINS

CITY           SKY/WX    TMP DP  RH WIND       PRES   REMARKS
CHILDRESS      CLEAR     49  33  54 N5        30.33R
SEMINOLE       CLEAR     53  35  52 NE8       30.33S
LUBBOCK        CLEAR     46  33  60 NE7       30.34R
PLAINVIEW      CLEAR     47  33  57 NE6       30.34S
SNYDER         CLEAR     56  37  48 N7        30.30R
$$

TXZ052-054-060>062-072-078-127-140-154-169-310800-
PERMIAN BASIN/CONCHO VALLEY/BIG COUNTRY/EDWARDS PLATEAU

CITY           SKY/WX    TMP DP  RH WIND       PRES   REMARKS
ABILENE        CLEAR     62  38  40 NE3       30.26S
BIG SPRING     CLEAR     61  39  44 NE9       30.30R
BRADY          CLOUDY    66  61  82 NE15      30.20R
BROWNWOOD      CLOUDY    64  59  82 NE5       30.22S
JUNCTION       CLOUDY    70  61  73 E6        30.17R
MIDLAND        CLEAR     63  41  44 E13       30.28R
ODESSA         CLEAR     62  42  47 E14       30.29R
SAN ANGELO     CLOUDY    70  59  68 NE14      30.22R
SONORA         PTCLDY    70  59  68 NE10      30.22S
SWEETWATER     CLEAR     60  38  43 NE9       30.31S
WINK           CLEAR     63  48  58 NE13      30.26R
$$

TXZ055-058-074-075-080-082-310800-
FAR WEST/SOUTHWEST MOUNTAINS/TRANS PECOS

CITY           SKY/WX    TMP DP  RH WIND       PRES   REMARKS
ALPINE         CLEAR     54  40  59 N5        30.36R
DRYDEN           N/A     68  61  78 N9        30.14S
EL PASO        MOCLDY    63  35  35 SE6       30.26R
FORT STOCKTON  CLEAR     59  48  67 N7        30.25R
GUADALUPE PASS MOCLDY    55  48  77 NE40      30.34R
MARFA          CLEAR     57  39  51 N16       30.32S
PECOS          CLEAR     56  48  75 N6        30.27R
PRESIDIO       FAIR      72  40  31 N9G20     30.18S
$$

TXZ014-016-019-021>030-083-310800
TEXAS TECH WEST TEXAS MESONET/TEXAS PANHANDLE/NORTHERN SOUTH PLAINS

CITY           SKY/WX    TMP DP  RH WIND       PRES   REMARKS
ABERNATHY 5ENE   N/A     42  33  71 N6        30.36R
AMARILLO 9NNE    N/A     38  28  67 S1        30.39R
AMARILLO 7SSE    N/A     38  31  76 NW1       30.40R
AMHERST 1NE      N/A     44  32  62 NE6       30.37R
BOOTLEG 11WNW    N/A     45  28  52 E7        30.41S
CANADIAN 6E      N/A     45  31  58 N12       30.35R
CAPROCK CYN SP   N/A     56  30  36 N5        30.36S
CHILDRESS 2NNE   N/A     50  31  49 NW6       30.32R
CLARENDON 2WSW   N/A     44  29  55 N2        30.35S
CLAUDE 12SW      N/A     45  32  59 NE12      30.37S
DIMMITT 2NE      N/A     41  31  67 N6        30.39R
FLOYDADA 2NNE    N/A     43  31  64 N8        30.35S
FRIONA 2NE       N/A     41  30  63 NE6       30.39F
GOODLETT 3W      N/A     52  32  45 NW8       30.30R
HART 3N          N/A     40  33  76 N6        30.38R
HEREFORD 2NW     N/A     39  31  72 N2        30.39S
MCLEAN 1E        N/A     44  28  52 NW7       30.34S
MEMPHIS 1NE      N/A     50  31  49 NW7       30.33S
MULESHOE 2SSW    N/A     35  28  76 CALM      30.38R
OLTON 6S         N/A     43  31  64 N8        30.37R
PALO DURO SP     N/A     51  28  39 W1        30.40R
PAMPA 2E         N/A     45  29  54 N2        30.37R
PLAINVIEW 1S     N/A     49  32  51 NE9       30.35S
SILVERTON 7ESE   N/A     47  29  48 NE6       30.37S
TULIA 2ENE       N/A     39  31  73 N6        30.37S WCI  35
TURKEY 2WSW      N/A     51  32  47 NW9       30.34S
UMBARGER 3NNE    N/A     38  30  73 NE5       30.39S WCI  35
$$

TXZ033>036-039>041-045>048-310800
TEXAS TECH WEST TEXAS MESONET/SOUTH PLAINS

CITY           SKY/WX    TMP DP  RH WIND       PRES   REMARKS
AIKEN 3WSW       N/A     45  32  61 NE8       30.36S
ANDREWS 2NE      N/A     53  38  57 NE7       30.32R
ANTON 6SSW       N/A     44  33  65 N7        30.36R
BROWNFIELD 2S    N/A     51  32  47 N7        30.33R
DENVR CTY 7WNW   N/A     45  35  66 NE9       30.34S
GAIL 2ESE        N/A     49  39  67 N8        30.29S
LAMESA 2SE       N/A     51  35  54 N3        30.32S
LEVELLAND 4S     N/A     44  32  62 N9        30.35R
LUBBOCK 3WNW     N/A     48  32  53 N3        30.35S
MORTON 1ENE      N/A     43  32  65 NE8       30.36S
ODONNELL 1N      N/A     49  33  53 N8        30.32S
PLAINS 3N        N/A     49  31  51 NE8       30.35S
RALLS 1SE        N/A     48  32  53 NE7       30.34S
REESE CENTER     N/A     43  33  66 N7        30.35S
SEMINOLE 2NNE    N/A     51  34  52 N9        30.32S
SLATON 2NE       N/A     49  32  51 N8        30.33S
SNYDER 3E        N/A     57  36  45 NE10      30.28S
SUNDOWN 8SW      N/A     40  31  70 N7        30.35S
TAHOKA 3NNE      N/A     44  33  63 N8        30.33R
WOLFFORTH 6SSW   N/A     46  34  63 N7        30.35R
$$

TXZ031-032-036>038-042>044-310800-
TEXAS TECH WEST TEXAS MESONET/ROLLING PLAINS

CITY           SKY/WX    TMP DP  RH WIND       PRES   REMARKS
ASPERMONT 3NE    N/A     48  37  66 NW3       30.29R
FLUVANNA 3WNW    N/A     50  36  59 NE7       30.30S
GRAHAM 5SSW      N/A     55  32  41 N13       30.31R
GUTHRIE 10WSW    N/A     53  33  46 N7        30.30R
HASKELL 1NW      N/A     47  36  64 N8        30.27R
JAYTON 1SSE      N/A     51  37  58 N5        30.30R
KNOX CITY 3NW    N/A     53  35  50 N5        30.28R
LK A HENRY 1NW   N/A     51  35  53 N5        30.30S
NORTHFIELD 1S    N/A     48  33  57 W2        30.33S
ODELL 4ENE       N/A     45  34  66 NW5       30.30R
PADUCAH 10SW     N/A     51  32  48 N8        30.32R
POST 1NE         N/A     54  34  46 N7        30.32R
RRING SPRGS 3N   N/A     53  32  45 N8        30.33S
SEYMOUR 3NW      N/A     56  36  46 N8        30.27R
SPUR 1W          N/A     47  35  61 N6        30.30S
WEINERT 2NNE     N/A     50  37  59 N3        30.28R
WHITE RVR 6NE    N/A     51  33  49 N13       30.31S
$$

TXZ052-054-060>062-072-078-127-140-154-169-310800-
TEXAS TECH WEST TEXAS MESONET/PERMIAN BASIN/
CONCHO VALLEY/BIG COUNTRY/EDWARDS PLATEAU

CITY           SKY/WX    TMP DP  RH WIND       PRES   REMARKS
COYANOSA 2N      N/A     64  55  73 NE8       30.25S
JUNCTION 1SSW    N/A     69  61  77 N3        30.18S
MERTZON 3NNE     N/A     68  58  71 NE10      30.25R
SAN ANGELO 7NW   N/A     68  56  64 NE9       30.24R
STRLNG CT 4WSW   N/A     65  49  57 NE7       30.27S
ST LAWRNCE 5SW   N/A     64  49  58 NE14      30.26S
SWEETWATR 11SW   N/A     55  43  62 NE10      30.28S
WALL 1E          N/A     68  57  68 NE12      30.24R
$$

TXZ055-058-074-075-080-082-310800-
TEXAS TECH WEST TEXAS MESONET/FAR WEST/SOUTHWEST MOUNTAINS/TRANS PECOS

CITY           SKY/WX    TMP DP  RH WIND       PRES   REMARKS
PRSMN GAP BBNP   N/A     73  44  36 NW6       30.18S
GUADLPE MTN NP   N/A     55  47  75 NE14      30.41S
$$